GW4127 Weather Reports


time (UTC)temp
C
wind
direction
speed
KPH
gust
KPH
rain 1hr
cm
rain 24hr
cm
rain mn
cm
humidity
%
barometer
mb
20260510091514 12 301 6.4 14.5 0.00 1.80 0.05 91 1017.8
20260510090048 12 301 4.8 11.3 0.00 1.80 0.05 93 1017.8
20260510084534 11 301 3.2 9.7 0.00 1.80 0.05 96 1017.7
20260510083015 11 301 1.6 11.3 0.00 1.80 0.05 98 1017.8
20260510081602 11 301 3.2 9.7 0.00 1.80 0.05 99 1017.6
20260510081507 11 301 3.2 9.7 0.00 1.80 0.05 99 1017.7
20260510080054 10 301 0.0 4.8 0.00 1.80 0.05 99 1017.5
20260510074535 10 301 0.0 9.7 0.00 1.80 0.05 99 1017.6
20260510073021 10 301 3.2 9.7 0.00 1.80 0.05 99 1017.4
20260510071559 9 301 4.8 14.5 0.00 1.80 0.05 99 1017.2
20260510070050 9 301 8.0 16.1 0.00 1.80 0.05 99 1017.2
20260510064531 9 301 1.6 16.1 0.00 1.80 0.05 99 1016.9
20260510063011 8 301 3.2 9.7 0.00 1.80 0.05 99 1016.8
20260510061551 8 301 0.0 11.3 0.03 1.80 0.05 99 1016.9
20260510060043 8 301 3.2 9.7 0.03 1.80 0.05 99 1016.7
20260510054516 8 301 1.6 9.7 0.03 1.80 0.05 99 1016.5
20260510053021 8 301 3.2 9.7 0.03 1.80 0.05 99 1016.5
20260510051603 8 301 0.0 6.4 0.00 1.78 0.03 99 1016.5
20260510051506 8 301 1.6 6.4 0.00 1.78 0.03 99 1016.6
20260510050055 8 301 0.0 8.0 0.00 1.78 0.03 99 1016.4
20260510044543 8 301 4.8 11.3 0.00 1.78 0.03 99 1016.3
20260510043039 8 301 1.6 8.0 0.00 1.78 0.03 99 1016.4
20260510041528 8 301 3.2 11.3 0.00 1.78 0.03 99 1016.6
20260510040025 8 301 3.2 14.5 0.00 1.78 0.03 99 1016.5
20260510034524 8 301 3.2 11.3 0.00 1.78 0.03 99 1016.6
20260510033003 8 301 3.2 11.3 0.00 1.78 0.03 99 1016.5
20260510031558 8 301 3.2 9.7 0.00 1.78 0.03 99 1016.6
20260510030052 8 301 4.8 11.3 0.00 1.78 0.03 99 1016.6
20260510024547 8 301 4.8 11.3 0.00 1.78 0.03 99 1016.8
20260510023040 8 301 4.8 16.1 0.00 1.78 0.03 99 1016.8
20260510021534 8 301 6.4 14.5 0.00 1.78 0.03 99 1016.9
20260510020018 8 301 6.4 19.3 0.00 1.78 0.03 99 1017.0
20260510014520 8 301 6.4 16.1 0.00 1.78 0.03 99 1016.9
20260510013053 8 301 3.2 9.7 0.00 1.78 0.03 99 1017.1
20260510011545 8 301 3.2 11.3 0.00 1.78 0.03 99 1017.1
20260510010038 8 301 4.8 14.5 0.00 1.78 0.03 99 1017.0
20260510004524 8 301 3.2 8.0 0.00 1.78 0.03 99 1017.0
20260510003016 8 301 1.6 4.8 0.03 1.78 0.03 99 1017.3
20260510001508 8 301 1.6 6.4 0.03 1.78 0.03 99 1017.3
20260510000057 8 301 3.2 6.4 0.03 1.78 0.03 99 1017.5
20260509234559 8 301 1.6 4.8 0.03 1.78 0.03 99 1017.5
20260509233037 7 301 0.0 8.0 0.00 1.75 0.00 99 1017.8
20260509231518 7 301 0.0 6.4 0.00 1.75 0.00 99 1018.0
20260509230012 7 301 1.6 4.8 0.00 1.75 0.00 99 1017.9
20260509224517 7 301 1.6 6.4 0.00 1.75 0.00 99 1018.2
20260509223103 7 301 0.0 3.2 0.00 1.75 0.00 99 1018.4
20260509221553 7 301 0.0 3.2 0.00 1.75 0.00 99 1018.2
20260509220029 7 301 0.0 1.6 0.00 1.75 1.75 99 1018.0
20260509214511 8 301 0.0 6.4 0.00 1.75 1.75 99 1018.1
20260509213003 8 301 0.0 4.8 0.00 1.75 1.75 99 1018.1
20260509211555 8 301 3.2 6.4 0.00 1.75 1.75 99 1017.9
20260509210057 8 301 0.0 6.4 0.00 1.75 1.75 99 1018.2
20260509204541 8 301 0.0 6.4 0.00 1.75 1.75 99 1017.9
20260509203036 8 301 1.6 4.8 0.00 1.75 1.75 99 1017.6
20260509201515 8 301 0.0 1.6 0.00 1.75 1.75 99 1017.5
20260509200007 8 301 0.0 4.8 0.00 1.75 1.75 98 1017.2
20260509194557 8 301 1.6 8.0 0.00 1.75 1.75 98 1016.8
20260509193050 8 301 1.6 9.7 0.00 1.75 1.75 98 1016.3
20260509191545 8 301 3.2 9.7 0.00 1.75 1.75 98 1015.9
20260509190035 8 301 1.6 8.0 0.00 1.75 1.75 98 1015.8
20260509184539 8 301 1.6 11.3 0.00 1.75 1.75 98 1015.7
20260509183011 8 301 1.6 4.8 0.00 1.75 1.75 98 1015.8
20260509181503 8 301 1.6 8.0 0.00 1.75 1.75 98 1015.8
20260509180113 8 301 0.0 8.0 0.00 1.75 1.75 98 1015.6
20260509174549 8 301 4.8 16.1 0.00 1.75 1.75 98 1015.3
20260509173050 8 301 6.4 16.1 0.03 1.75 1.75 98 1014.7
20260509171549 8 301 6.4 16.1 0.05 1.75 1.75 98 1014.7
20260509170028 8 301 1.6 9.7 0.18 1.75 1.75 98 1014.9
20260509164503 8 301 1.6 11.3 0.38 1.73 1.75 98 1015.4
20260509163055 8 301 3.2 12.9 0.64 1.73 1.73 98 1015.6
20260509161600 9 301 0.0 6.4 0.89 1.70 1.70 98 1016.3
20260509160035 9 301 1.6 8.0 1.07 1.57 1.57 97 1016.8
20260509154523 9 301 1.6 6.4 1.07 1.35 1.37 97 1017.3
20260509153017 10 301 1.6 9.7 0.81 1.07 1.07 97 1017.6
20260509151502 10 301 4.8 12.9 0.53 0.79 0.79 97 1017.8
20260509150053 10 301 3.2 11.3 0.28 0.53 0.53 97 1017.4
20260509144544 10 301 1.6 4.8 0.08 0.30 0.30 96 1016.4
20260509143042 10 301 0.0 6.4 0.13 0.25 0.25 96 1015.5
20260509141538 10 301 3.2 12.9 0.25 0.25 0.25 96 1015.3
20260509140014 10 301 4.8 17.7 0.25 0.25 0.25 96 1015.4
20260509134518 10 301 1.6 9.7 0.23 0.23 0.23 96 1016.0
20260509133054 10 301 0.0 9.7 0.13 0.13 0.13 94 1016.7
20260509131533 11 301 1.6 8.0 0.03 0.03 0.03 92 1017.2
20260509130031 11 301 1.6 11.3 0.00 0.00 0.00 91 1017.6
20260509124525 11 301 0.0 9.7 0.00 0.00 0.00 92 1017.1
20260509123016 11 301 1.6 11.3 0.00 0.00 0.00 92 1017.1
20260509121510 11 301 3.2 14.5 0.00 0.00 0.00 94 1016.6
20260509120041 11 301 1.6 8.0 0.00 0.00 0.00 96 1017.1
20260509114534 11 301 3.2 11.3 0.00 0.00 0.00 95 1017.6
20260509113019 11 301 1.6 8.0 0.00 0.00 0.00 95 1017.9
20260509111513 12 301 0.0 6.4 0.00 0.00 0.00 94 1018.0
20260509110059 12 301 1.6 12.9 0.00 0.00 0.00 94 1017.9
20260509104608 11 301 0.0 6.4 0.00 0.00 0.00 95 1017.9
20260509103111 11 301 3.2 6.4 0.00 0.00 0.00 94 1018.3
20260509103001 11 301 1.6 6.4 0.00 0.00 0.00 95 1018.4
20260509101556 11 301 1.6 8.0 0.00 0.00 0.00 95 1018.3
20260509100045 11 301 0.0 6.4 0.00 0.00 0.00 95 1018.3
20260509094542 11 301 1.6 6.4 0.00 0.00 0.00 96 1018.2
20260509093041 11 301 0.0 9.7 0.00 0.00 0.00 96 1018.0